Stations météo

réclame
Mon MeteoGroup
Capo Spartivento, Italie (16469): Température de l'air & dewpoint: 18.01.2018 10:00:00 - 24.01.2018 10:00:00 (CET)Capo Spartivento, Italie (16469): Vitesse du vent: 18.01.2018 10:00:00 - 24.01.2018 10:00:00 (CET)Capo Spartivento, Italie (16469): Direction du vent: 18.01.2018 10:00:00 - 24.01.2018 10:00:00 (CET)Capo Spartivento, Italie (16469): reduced air pressure: 18.01.2018 10:00:00 - 24.01.2018 10:00:00 (CET)Capo Spartivento, Italie (16469): Quantités de précipitations: 18.01.2018 10:00:00 - 24.01.2018 10:00:00 (CET)
Date & Time tt [°C] td [°C] ff [km/h] ff [knt] dd ppp [hPa] rr [mm]
24.01.2018 10:00:00 - - - - - - -
24.01.2018 09:00:00 14,2 7,4 15 8 NW 1027,4 -
24.01.2018 08:00:00 13,0 8,0 15 8 WNW 1026,8 -
24.01.2018 07:00:00 13,0 9,2 18 10 NW 1026,1 0,0
24.01.2018 06:00:00 12,8 10,0 16 9 NNW 1025,4 -
24.01.2018 05:00:00 13,0 10,1 15 8 NW 1024,8 -
24.01.2018 04:00:00 13,2 10,7 11 6 NW 1024,4 -
24.01.2018 03:00:00 13,8 10,0 8 4 WNW 1024,3 -
24.01.2018 02:00:00 13,9 9,7 5 3 NW 1024,2 -
24.01.2018 01:00:00 14,7 9,4 2 1 NNE 1023,9 0,0
24.01.2018 00:00:00 15,4 8,6 8 4 NW 1023,6 -
23.01.2018 23:00:00 14,8 9,1 8 4 SW 1023,2 -
23.01.2018 22:00:00 14,3 9,7 18 10 NNW 1022,9 -
23.01.2018 21:00:00 14,3 10,1 31 17 NW 1022,3 -
23.01.2018 20:00:00 14,2 10,4 28 15 NW 1021,5 -
23.01.2018 19:00:00 14,3 10,5 31 17 NW 1020,8 -
23.01.2018 18:00:00 14,2 10,8 31 17 NW 1019,9 -
23.01.2018 17:00:00 13,9 10,7 29 16 NW 1019,3 -
23.01.2018 16:00:00 13,7 12,6 31 17 NW 1018,5 -
23.01.2018 15:00:00 13,1 13,0 35 19 NW 1018,0 -
23.01.2018 14:00:00 13,3 13,2 37 20 NW 1017,3 -
23.01.2018 13:00:00 13,8 13,7 29 16 NW 1017,2 -
23.01.2018 12:00:00 14,6 14,5 26 14 NW 1016,7 -
23.01.2018 11:00:00 15,8 14,1 21 11 NNW 1016,3 -
23.01.2018 10:00:00 16,8 13,4 9 5 N 1016,0 -
23.01.2018 09:00:00 16,1 12,6 2 1 SE 1015,2 -
23.01.2018 08:00:00 15,8 12,3 5 3 SSE 1014,9 -
23.01.2018 07:00:00 15,7 12,2 0 0 N 1014,7 -
23.01.2018 06:00:00 15,8 12,7 2 1 W 1014,3 -
23.01.2018 05:00:00 15,2 12,1 9 5 NW 1014,6 -
23.01.2018 04:00:00 15,1 12,0 13 7 NW 1014,5 -
23.01.2018 03:00:00 14,6 11,2 15 8 NNW 1014,8 -
23.01.2018 02:00:00 15,5 11,6 9 5 WNW 1015,0 -
23.01.2018 01:00:00 15,4 11,5 11 6 NNW 1014,9 0,0
23.01.2018 00:00:00 15,2 11,2 13 7 NW 1015,0 -
22.01.2018 23:00:00 15,2 9,9 11 6 WNW 1014,9 -
22.01.2018 22:00:00 15,4 9,9 9 5 WNW 1014,6 -
22.01.2018 21:00:00 16,1 9,5 13 7 W 1014,3 -
22.01.2018 20:00:00 16,4 10,2 9 5 W 1014,3 -
22.01.2018 19:00:00 16,4 10,6 4 2 W 1014,4 0,0
22.01.2018 18:00:00 16,8 10,1 8 4 NE 1014,0 -
22.01.2018 17:00:00 18,0 9,6 8 4 ESE 1013,2 -
22.01.2018 16:00:00 19,4 9,5 8 4 W 1013,2 -
22.01.2018 15:00:00 19,1 8,7 13 7 NE 1012,9 -
22.01.2018 14:00:00 19,1 9,2 11 6 NE 1013,0 -
22.01.2018 13:00:00 18,6 8,2 15 8 NE 1013,2 0,0
22.01.2018 12:00:00 18,9 8,8 9 5 E 1013,7 -
22.01.2018 11:00:00 18,3 10,1 8 4 S 1013,8 -
22.01.2018 10:00:00 17,4 9,0 2 1 SW 1013,2 -
22.01.2018 09:00:00 16,3 9,7 9 5 NNW 1012,0 -
22.01.2018 08:00:00 15,9 10,6 15 8 N 1011,1 -
22.01.2018 07:00:00 16,6 14,4 18 10 N 1010,1 0,0
22.01.2018 06:00:00 16,3 16,2 13 7 E 1009,6 -
22.01.2018 05:00:00 16,0 15,9 8 4 SE 1009,0 -
22.01.2018 04:00:00 15,9 15,8 11 6 S 1009,1 -
22.01.2018 03:00:00 16,0 15,9 15 8 NNE 1008,8 -
22.01.2018 02:00:00 17,0 15,3 21 11 NE 1008,0 -
22.01.2018 01:00:00 17,9 9,7 11 6 WSW 1006,7 0,0
22.01.2018 00:00:00 18,0 10,6 15 8 NE 1006,2 -
21.01.2018 23:00:00 18,5 12,2 18 10 ESE 1005,7 -
21.01.2018 22:00:00 18,2 11,2 9 5 NNW 1005,1 -
21.01.2018 21:00:00 18,5 8,4 13 7 SW 1004,1 -
21.01.2018 20:00:00 18,0 12,4 11 6 SSW 1003,4 -
21.01.2018 19:00:00 18,0 13,8 16 9 SE 1002,5 0,0
21.01.2018 18:00:00 17,8 14,0 24 13 ENE 1001,9 -
21.01.2018 17:00:00 16,8 15,1 18 10 N 1002,7 -
21.01.2018 16:00:00 16,0 13,2 15 8 SSW 1003,0 -
21.01.2018 15:00:00 16,4 12,3 13 7 NNE 1003,7 -
21.01.2018 14:00:00 15,7 11,6 18 10 E 1004,5 -
21.01.2018 13:00:00 15,4 11,9 26 14 NW 1005,8 0,0
21.01.2018 12:00:00 16,6 12,1 16 9 ENE 1007,0 -
21.01.2018 11:00:00 17,1 10,9 24 13 W 1007,9 -
21.01.2018 10:00:00 17,1 8,2 11 6 SSE 1008,4 -
21.01.2018 09:00:00 16,1 7,2 26 14 ENE 1008,6 -
21.01.2018 08:00:00 14,9 9,0 11 6 SSE 1008,8 -
21.01.2018 07:00:00 14,9 8,5 2 1 S 1009,0 0,0
21.01.2018 06:00:00 14,7 9,4 11 6 NE 1009,1 -
21.01.2018 05:00:00 15,1 9,0 11 6 ESE 1009,6 -
21.01.2018 04:00:00 15,5 10,2 4 2 WSW 1010,4 -
21.01.2018 03:00:00 15,7 11,4 11 6 ENE 1011,4 -
21.01.2018 02:00:00 15,8 11,5 5 3 NNE 1011,7 -
21.01.2018 01:00:00 15,8 11,1 8 4 E 1011,7 -
21.01.2018 00:00:00 15,7 10,8 4 2 WNW 1012,5 -
20.01.2018 23:00:00 15,2 12,7 9 5 WNW 1013,0 -
20.01.2018 22:00:00 15,3 12,9 11 6 NW 1013,0 -
20.01.2018 21:00:00 15,6 12,8 9 5 NNW 1013,0 -
20.01.2018 20:00:00 16,1 12,9 9 5 NNE 1012,7 -
20.01.2018 19:00:00 16,3 12,8 4 2 SSW 1012,5 0,0
20.01.2018 18:00:00 17,1 13,0 4 2 SSW 1012,3 -
20.01.2018 17:00:00 17,7 11,4 5 3 NNE 1012,1 -
20.01.2018 16:00:00 19,8 12,3 4 2 WSW 1011,6 -
20.01.2018 15:00:00 19,8 12,8 5 3 E 1011,3 -
20.01.2018 14:00:00 19,6 12,6 5 3 W 1011,3 -
20.01.2018 13:00:00 19,1 12,1 9 5 ENE 1011,7 0,0
20.01.2018 12:00:00 18,0 13,0 13 7 NNE 1012,5 -
20.01.2018 11:00:00 18,2 12,2 11 6 NNE 1013,1 -
20.01.2018 10:00:00 17,7 11,0 4 2 SW 1013,1 -
20.01.2018 09:00:00 16,4 11,3 4 2 W 1013,1 -
20.01.2018 08:00:00 17,2 13,8 11 6 W 1012,9 -
20.01.2018 07:00:00 14,8 12,5 9 5 WNW 1012,5 0,0
20.01.2018 06:00:00 14,4 10,8 15 8 NNW 1012,1 -
20.01.2018 05:00:00 14,3 11,6 11 6 NW 1011,9 -
20.01.2018 04:00:00 15,1 12,6 11 6 SW 1012,2 -
20.01.2018 03:00:00 15,6 13,2 15 8 W 1012,8 -
20.01.2018 02:00:00 15,3 11,3 16 9 WSW 1012,6 -
20.01.2018 01:00:00 15,4 11,7 21 11 WNW 1012,8 -
20.01.2018 00:00:00 15,3 12,6 21 11 SW 1013,7 -
19.01.2018 23:00:00 16,0 11,7 5 3 WNW 1013,7 -
19.01.2018 22:00:00 16,4 9,7 9 5 SW 1013,4 -
19.01.2018 21:00:00 15,3 11,6 11 6 WNW 1013,4 -
19.01.2018 20:00:00 15,7 11,6 4 2 NNW 1013,6 -
19.01.2018 19:00:00 16,5 12,8 11 6 NW 1013,7 0,0
19.01.2018 18:00:00 15,7 12,9 8 4 N 1013,8 -
19.01.2018 17:00:00 16,1 13,1 18 10 ENE 1013,8 -
19.01.2018 16:00:00 17,0 12,3 31 17 S 1013,4 -
19.01.2018 15:00:00 17,2 13,6 28 15 WSW 1013,5 -
19.01.2018 14:00:00 17,3 13,9 31 17 S 1013,6 -
19.01.2018 13:00:00 17,4 14,0 22 12 ESE 1014,7 0,0
19.01.2018 12:00:00 16,7 13,0 28 15 NNW 1015,5 -
19.01.2018 11:00:00 16,3 13,0 31 17 S 1016,1 -
19.01.2018 10:00:00 15,7 12,6 22 12 W 1016,1 -
19.01.2018 09:00:00 15,4 9,0 15 8 S 1017,0 -
19.01.2018 08:00:00 16,6 8,5 11 6 W 1016,9 -
19.01.2018 07:00:00 17,3 10,6 11 6 W 1017,1 0,0
19.01.2018 06:00:00 14,5 7,2 5 3 W 1017,2 -
19.01.2018 05:00:00 14,2 6,7 9 5 W 1017,4 -
19.01.2018 04:00:00 13,8 6,1 9 5 WNW 1018,0 -
19.01.2018 03:00:00 13,9 3,8 9 5 NW 1018,2 -
19.01.2018 02:00:00 15,4 3,1 15 8 W 1018,7 -
19.01.2018 01:00:00 14,8 2,9 16 9 SSW 1018,7 0,0
19.01.2018 00:00:00 15,3 3,7 18 10 SW 1018,9 -
18.01.2018 23:00:00 15,1 5,2 15 8 E 1019,6 -
18.01.2018 22:00:00 15,2 4,2 11 6 NW 1020,3 -
18.01.2018 21:00:00 15,6 2,6 9 5 ESE 1020,6 -
18.01.2018 20:00:00 15,7 3,1 4 2 ENE 1020,9 -
18.01.2018 19:00:00 15,8 -2,3 21 11 WSW 1020,6 0,0
18.01.2018 18:00:00 16,8 5,6 11 6 W 1020,7 -
18.01.2018 17:00:00 17,3 4,5 9 5 ENE 1020,4 -
18.01.2018 16:00:00 18,6 3,2 9 5 N 1020,7 -
18.01.2018 15:00:00 19,2 2,9 9 5 NNE 1020,6 -
18.01.2018 14:00:00 18,4 1,3 11 6 ENE 1020,7 -
18.01.2018 13:00:00 18,6 2,3 9 5 NE 1020,9 0,0
18.01.2018 12:00:00 17,8 1,2 15 8 NNE 1021,3 -
18.01.2018 11:00:00 17,8 0,8 5 3 NNE 1021,1 -
18.01.2018 10:00:00 16,2 1,0 8 4 N 1020,3 -

tt = Température de l'air
td = dewpoint
ff = Vitesse du vent
dd = Direction du vent
ppp = reduced air pressure
rr = Quantités de précipitations

stations d'obs. à proximité